This is the latest recevied weather packets stored in our database for station/object K6POO-1. If no packets are shown the sender has not sent any weather packets the latest 10 day(s).
| Time | Temp. | Humidity | Pressure | Rain* | Wind** | Luminosity | Snow |
|---|---|---|---|---|---|---|---|
| 1777855998 | 15.56° C | 66% | 1013.4 hPa | 0 mm | - | 293 W/m² | - |
| 1777855696 | 15° C | 66% | 1013.2 hPa | 0 mm | - | 180 W/m² | - |
| 1777855394 | 15° C | 70% | 1013.4 hPa | 0 mm | - | 185 W/m² | - |
| 1777855089 | 14.44° C | 71% | 1013.5 hPa | 0 mm | - | 185 W/m² | - |
| 1777854787 | 14.44° C | 72% | 1013.6 hPa | 0 mm | - | 175 W/m² | - |
| 1777854483 | 15° C | 74% | 1013.3 hPa | 0 mm | - | 189 W/m² | - |
| 1777854180 | 15° C | 73% | 1013.3 hPa | 0 mm | - | 210 W/m² | - |
| 1777853878 | 15° C | 72% | 1013.1 hPa | 0 mm | - | 225 W/m² | - |
| 1777853575 | 15° C | 71% | 1013 hPa | 0 mm | - | 238 W/m² | - |
| 1777853272 | 15° C | 71% | 1013 hPa | 0 mm | - | 252 W/m² | - |
| 1777852968 | 15° C | 70% | 1013.1 hPa | 0 mm | - | 261 W/m² | - |
| 1777852666 | 15.56° C | 69% | 1013.1 hPa | 0 mm | - | 246 W/m² | - |
| 1777852363 | 15.56° C | 68% | 1013.1 hPa | 0 mm | - | 263 W/m² | - |
| 1777852061 | 15.56° C | 68% | 1012.9 hPa | 0 mm | - | 261 W/m² | - |
| 1777851759 | 15.56° C | 67% | 1012.8 hPa | 0 mm | - | 249 W/m² | - |
| 1777851456 | 15.56° C | 67% | 1012.9 hPa | 0 mm | - | 307 W/m² | - |
| 1777851151 | 15.56° C | 67% | 1013 hPa | 0 mm | - | 397 W/m² | - |
| 1777850848 | 16.11° C | 66% | 1013.1 hPa | 0 mm | - | 358 W/m² | - |
| 1777850546 | 16.11° C | 68% | 1012.9 hPa | 0 mm | - | 340 W/m² | - |
| 1777850244 | 15.56° C | 67% | 1013.1 hPa | 0 mm | - | 388 W/m² | - |
| 1777849941 | 15.56° C | 67% | 1013 hPa | 0 mm | - | 374 W/m² | - |
| 1777849637 | 15.56° C | 67% | 1013.1 hPa | 0 mm | - | 369 W/m² | - |
| 1777849334 | 15.56° C | 68% | 1013 hPa | 0 mm | - | 320 W/m² | - |
| 1777849032 | 15.56° C | 68% | 1013 hPa | 0 mm | - | 297 W/m² | - |
| 1777848731 | 15.56° C | 67% | 1013.1 hPa | 0 mm | - | 287 W/m² | - |
* Rain latest hour (hover to see other rain measurements)
** Current wind speed in m/s (hover to see current wind gust speed)